Location: Peebles
(55.6412°N, 3.1714°W)
Time: 14:05:43
(UTC+00:00)

RS-15 - Pass Details

Date: 04 December 2023
Orbit: 1893 x 2151 km, 64.8° (Epoch: 02 March)

Event Time Altitude Azimuth Distance (km) Brightness Sun altitude
Exits shadow 03:12:59 58° 342° (NNW) 2,265 8.1 -41.6°
Maximum altitude 03:15:03 66° 26° (NNE) 2,135 8.1 -41.4°
Drops below altitude 10° 03:26:09 10° 108° (ESE) 4,329 10.3 -39.9°
Sets 03:29:25 0° 112° (ESE) 5,305 10.9 -39.5°
